| time (UTC) | temp F | wind direction | speed MPH | gust MPH | rain 1hr in | rain 24hr in | rain mn in | humidity % | barometer mb |
| 20260505191212 | 80 | 55 | 6.0 | 12.0 | 0.00 | 0.00 | 0.00 | 62 | 1015.8 |
| 20260505190202 | 80 | 94 | 6.0 | 11.0 | 0.00 | 0.00 | 0.00 | 61 | 1016.0 |
| 20260505185127 | 81 | 48 | 5.0 | 11.0 | 0.00 | 0.00 | 0.00 | 60 | 1016.1 |
| 20260505184115 | 80 | 59 | 6.0 | 11.0 | 0.00 | 0.00 | 0.00 | 60 | 1016.2 |
| 20260505183120 | 80 | 60 | 5.0 | 10.0 | 0.00 | 0.00 | 0.00 | 62 | 1016.3 |
| 20260505182122 | 79 | 87 | 6.0 | 10.0 | 0.00 | 0.00 | 0.00 | 63 | 1016.3 |
| 20260505181117 | 79 | 61 | 6.0 | 10.0 | 0.00 | 0.00 | 0.00 | 62 | 1016.4 |
| 20260505180048 | 80 | 90 | 5.0 | 13.0 | 0.00 | 0.00 | 0.00 | 59 | 1016.4 |
| 20260505175026 | 80 | 64 | 6.0 | 12.0 | 0.00 | 0.00 | 0.00 | 59 | 1016.5 |
| 20260505172902 | 80 | 16 | 6.0 | 12.0 | 0.00 | 0.00 | 0.00 | 62 | 1016.5 |
| 20260505171858 | 79 | 68 | 5.0 | 12.0 | 0.00 | 0.00 | 0.00 | 64 | 1016.5 |
| 20260505170834 | 79 | 114 | 6.0 | 12.0 | 0.00 | 0.00 | 0.00 | 61 | 1016.6 |
| 20260505165824 | 80 | 86 | 6.0 | 13.0 | 0.00 | 0.00 | 0.00 | 60 | 1016.6 |
| 20260505164840 | 80 | 67 | 6.0 | 13.0 | 0.00 | 0.00 | 0.00 | 61 | 1016.5 |
| 20260505163809 | 80 | 88 | 5.0 | 12.0 | 0.00 | 0.00 | 0.00 | 62 | 1016.5 |
| 20260505162750 | 80 | 92 | 5.0 | 12.0 | 0.00 | 0.00 | 0.00 | 62 | 1016.7 |
| 20260505161724 | 79 | 59 | 6.0 | 12.0 | 0.00 | 0.00 | 0.00 | 62 | 1016.6 |
| 20260505160733 | 79 | 144 | 7.0 | 12.0 | 0.00 | 0.00 | 0.00 | 64 | 1016.6 |
| 20260505153352 | 79 | 101 | 6.0 | 13.0 | 0.00 | 0.00 | 0.00 | 62 | 1016.6 |
| 20260505152316 | 79 | 98 | 6.0 | 12.0 | 0.00 | 0.00 | 0.00 | 64 | 1016.5 |
| 20260505151301 | 79 | 77 | 6.0 | 14.0 | 0.00 | 0.00 | 0.00 | 66 | 1016.4 |
| 20260505150257 | 79 | 95 | 7.0 | 14.0 | 0.00 | 0.00 | 0.00 | 66 | 1016.3 |
| 20260505124709 | 77 | 115 | 6.0 | 13.0 | 0.00 | 0.00 | 0.00 | 68 | 1015.7 |
| 20260505123637 | 77 | 91 | 6.0 | 11.0 | 0.00 | 0.00 | 0.00 | 68 | 1015.6 |
| 20260505122627 | 77 | 76 | 6.0 | 11.0 | 0.00 | 0.00 | 0.00 | 68 | 1015.8 |
| 20260505121638 | 77 | 107 | 5.0 | 14.0 | 0.00 | 0.00 | 0.00 | 69 | 1016.1 |
| 20260505120658 | 77 | 76 | 6.0 | 14.0 | 0.00 | 0.00 | 0.00 | 69 | 1016.0 |
| 20260505115710 | 76 | 71 | 4.0 | 14.0 | 0.00 | 0.00 | 0.00 | 69 | 1015.7 |
| 20260505112355 | 75 | 115 | 5.0 | 12.0 | 0.00 | 0.00 | 0.00 | 69 | 1015.3 |
| 20260505111355 | 75 | 73 | 5.0 | 12.0 | 0.00 | 0.00 | 0.00 | 70 | 1015.0 |
| 20260505110357 | 75 | 75 | 4.0 | 10.0 | 0.00 | 0.00 | 0.00 | 69 | 1014.8 |
| 20260505100134 | 75 | 105 | 4.0 | 8.0 | 0.00 | 0.00 | 0.00 | 70 | 1014.4 |
| 20260505095152 | 75 | 128 | 3.0 | 8.0 | 0.00 | 0.00 | 0.00 | 70 | 1014.3 |
| 20260505094125 | 75 | 78 | 5.0 | 10.0 | 0.00 | 0.00 | 0.00 | 70 | 1014.2 |
| 20260505093104 | 75 | 48 | 4.0 | 10.0 | 0.00 | 0.00 | 0.00 | 69 | 1014.2 |
| 20260505084824 | 75 | 108 | 4.0 | 9.0 | 0.00 | 0.00 | 0.00 | 70 | 1013.9 |
| 20260505083751 | 75 | 67 | 3.0 | 7.0 | 0.00 | 0.00 | 0.00 | 70 | 1013.9 |
| 20260505082757 | 75 | 98 | 4.0 | 9.0 | 0.00 | 0.00 | 0.00 | 70 | 1013.9 |
| 20260505081801 | 75 | 115 | 3.0 | 10.0 | 0.00 | 0.00 | 0.00 | 70 | 1013.7 |
| 20260505080747 | 75 | 102 | 4.0 | 10.0 | 0.00 | 0.00 | 0.00 | 69 | 1014.0 |
| 20260505075745 | 75 | 105 | 3.0 | 10.0 | 0.00 | 0.00 | 0.00 | 71 | 1013.9 |
| 20260505073607 | 75 | 96 | 5.0 | 10.0 | 0.00 | 0.00 | 0.00 | 70 | 1014.0 |
| 20260505072622 | 75 | 107 | 4.0 | 9.0 | 0.00 | 0.00 | 0.00 | 70 | 1014.2 |
| 20260505071602 | 75 | 93 | 4.0 | 9.0 | 0.00 | 0.00 | 0.00 | 70 | 1014.3 |
| 20260505070608 | 75 | 111 | 3.0 | 11.0 | 0.00 | 0.00 | 0.00 | 69 | 1014.2 |
| 20260505065542 | 75 | 123 | 4.0 | 11.0 | 0.00 | 0.00 | 0.00 | 70 | 1014.3 |
| 20260505064531 | 75 | 129 | 5.0 | 11.0 | 0.00 | 0.00 | 0.00 | 71 | 1014.3 |
| 20260505063456 | 75 | 118 | 4.0 | 9.0 | 0.00 | 0.00 | 0.00 | 70 | 1014.4 |
| 20260505062419 | 75 | 101 | 4.0 | 11.0 | 0.00 | 0.00 | 0.00 | 70 | 1014.7 |
| 20260505060228 | 75 | 75 | 4.0 | 10.0 | 0.00 | 0.00 | 0.00 | 70 | 1014.7 |
| 20260505055221 | 75 | 94 | 4.0 | 10.0 | 0.00 | 0.00 | 0.00 | 70 | 1014.9 |
| 20260505054227 | 75 | 67 | 5.0 | 11.0 | 0.00 | 0.00 | 0.00 | 70 | 1015.2 |
| 20260505052053 | 75 | 69 | 5.0 | 11.0 | 0.00 | 0.00 | 0.00 | 71 | 1015.3 |
| 20260505040553 | 75 | 85 | 6.0 | 13.0 | 0.00 | 0.00 | 0.00 | 71 | 1015.6 |
| 20260505035547 | 75 | 69 | 6.0 | 15.0 | 0.00 | 0.00 | 0.00 | 71 | 1015.7 |
| 20260505034539 | 75 | 100 | 7.0 | 15.0 | 0.00 | 0.00 | 0.00 | 71 | 1015.6 |
| 20260505033503 | 75 | 71 | 7.0 | 14.0 | 0.00 | 0.00 | 0.00 | 71 | 1015.7 |
| 20260505030133 | 75 | 98 | 7.0 | 17.0 | 0.00 | 0.00 | 0.00 | 72 | 1015.9 |
| 20260505025122 | 75 | 103 | 7.0 | 17.0 | 0.00 | 0.00 | 0.00 | 72 | 1016.0 |
| 20260505024053 | 75 | 68 | 6.0 | 13.0 | 0.00 | 0.00 | 0.00 | 72 | 1015.9 |
| 20260505023108 | 75 | 51 | 6.0 | 13.0 | 0.00 | 0.00 | 0.00 | 72 | 1015.9 |
| 20260505021010 | 75 | 87 | 7.0 | 15.0 | 0.00 | 0.00 | 0.00 | 71 | 1015.9 |
| 20260505015947 | 75 | 108 | 7.0 | 14.0 | 0.00 | 0.00 | 0.00 | 71 | 1015.8 |
| 20260505014955 | 75 | 96 | 7.0 | 13.0 | 0.00 | 0.00 | 0.00 | 71 | 1015.8 |
| 20260505013918 | 75 | 88 | 6.0 | 12.0 | 0.00 | 0.00 | 0.00 | 71 | 1015.8 |
| 20260505012931 | 75 | 69 | 5.0 | 12.0 | 0.00 | 0.00 | 0.00 | 71 | 1015.9 |
| 20260505011909 | 75 | 32 | 6.0 | 12.0 | 0.00 | 0.00 | 0.00 | 70 | 1015.9 |
| 20260505004542 | 75 | 84 | 6.0 | 14.0 | 0.00 | 0.00 | 0.00 | 70 | 1015.1 |
| 20260505003556 | 75 | 33 | 6.0 | 12.0 | 0.00 | 0.00 | 0.00 | 70 | 1015.2 |
| 20260505002525 | 75 | 77 | 5.0 | 12.0 | 0.00 | 0.00 | 0.00 | 70 | 1015.3 |
| 20260505001524 | 75 | 84 | 7.0 | 14.0 | 0.00 | 0.00 | 0.00 | 70 | 1015.2 |
| 20260505000516 | 75 | 69 | 6.0 | 14.0 | 0.00 | 0.00 | 0.00 | 70 | 1015.0 |
| 20260504235536 | 75 | 80 | 6.0 | 16.0 | 0.00 | 0.00 | 0.00 | 69 | 1014.9 |
| 20260504234527 | 75 | 45 | 7.0 | 16.0 | 0.00 | 0.00 | 0.00 | 70 | 1014.8 |
| 20260504233531 | 75 | 40 | 7.0 | 14.0 | 0.00 | 0.00 | 0.00 | 70 | 1014.7 |
| 20260504232503 | 75 | 94 | 6.0 | 15.0 | 0.00 | 0.00 | 0.00 | 70 | 1014.9 |
| 20260504231522 | 75 | 80 | 6.0 | 15.0 | 0.00 | 0.00 | 0.00 | 69 | 1014.8 |
| 20260504230522 | 75 | 67 | 7.0 | 14.0 | 0.00 | 0.00 | 0.00 | 70 | 1014.9 |
| 20260504225510 | 75 | 94 | 7.0 | 14.0 | 0.00 | 0.00 | 0.00 | 70 | 1014.9 |
| 20260504224442 | 75 | 98 | 7.0 | 14.0 | 0.00 | 0.00 | 0.00 | 69 | 1014.8 |
| 20260504223427 | 75 | 61 | 6.0 | 14.0 | 0.00 | 0.00 | 0.00 | 69 | 1014.7 |
| 20260504222412 | 76 | 68 | 7.0 | 15.0 | 0.00 | 0.00 | 0.00 | 68 | 1014.7 |
| 20260504221350 | 76 | 94 | 7.0 | 16.0 | 0.00 | 0.00 | 0.00 | 68 | 1014.7 |
| 20260504220402 | 76 | 77 | 6.0 | 17.0 | 0.00 | 0.00 | 0.00 | 68 | 1014.7 |
| 20260504215346 | 76 | 104 | 7.0 | 17.0 | 0.00 | 0.00 | 0.00 | 69 | 1014.8 |
| 20260504214351 | 76 | 68 | 7.0 | 16.0 | 0.00 | 0.00 | 0.00 | 69 | 1014.8 |
| 20260504212223 | 76 | 59 | 7.0 | 17.0 | 0.00 | 0.00 | 0.00 | 68 | 1015.0 |
| 20260504210042 | 76 | 96 | 7.0 | 15.0 | 0.00 | 0.00 | 0.00 | 67 | 1015.1 |
| 20260504205052 | 77 | 49 | 8.0 | 15.0 | 0.00 | 0.00 | 0.00 | 66 | 1015.1 |
| 20260504204043 | 77 | 79 | 8.0 | 16.0 | 0.00 | 0.00 | 0.00 | 66 | 1015.1 |
| 20260504201913 | 76 | 102 | 8.0 | 17.0 | 0.00 | 0.00 | 0.00 | 66 | 1015.3 |
| 20260504195652 | 76 | 38 | 7.0 | 15.0 | 0.00 | 0.00 | 0.00 | 67 | 1015.3 |
| 20260504194631 | 76 | 65 | 8.0 | 15.0 | 0.00 | 0.00 | 0.00 | 66 | 1015.5 |
| 20260504193628 | 76 | 51 | 7.0 | 17.0 | 0.00 | 0.00 | 0.00 | 67 | 1015.8 |
| 20260504192634 | 77 | 39 | 8.0 | 17.0 | 0.00 | 0.00 | 0.00 | 66 | 1016.0 |